EW6230 Weather Reports


time (UTC)temp
C
wind
direction
speed
KPH
gust
KPH
rain 1hr
cm
rain 24hr
cm
rain mn
cm
humidity
%
barometer
mb
20260505190048 13 198 0.0 1.6 0.00 0.00 0.00 1 1012.7
20260505184546 12 184 0.0 0.0 0.00 0.00 0.00 1 1012.6
20260505183043 12 64 0.0 0.0 0.00 0.00 0.00 1 1012.6
20260505181543 12 98 0.0 0.0 0.00 0.00 0.00 1 1012.5
20260505180032 12 160 0.0 0.0 0.00 0.00 0.00 1 1012.4
20260505174527 12 160 0.0 0.0 0.00 0.00 0.00 1 1012.3
20260505173022 11 132 0.0 0.0 0.00 0.00 0.00 1 1012.2
20260505171518 11 132 0.0 0.0 0.00 0.00 0.00 1 1012.1
20260505170014 11 194 0.0 0.0 0.00 0.00 0.00 1 1012.0
20260505164509 11 194 0.0 0.0 0.00 0.00 0.00 1 1012.1
20260505163008 11 194 0.0 0.0 0.00 0.00 0.00 1 1012.1
20260505161610 11 194 0.0 0.0 0.00 0.00 0.00 1 1012.0
20260505153047 11 194 0.0 0.0 0.00 0.00 0.00 1 1011.8
20260505151542 10 194 0.0 0.0 0.00 0.00 0.00 1 1011.5
20260505124601 -17 0.0 0.0 0.00 0.00 0.00 1010.1
20260505123056 8 192 0.0 0.0 0.00 0.00 0.00 1 1010.1
20260505121552 9 194 0.0 0.0 0.00 0.00 0.00 1 1009.9
20260505120046 8 194 0.0 0.0 0.00 0.00 0.00 1 1009.7
20260505114541 8 194 0.0 0.0 0.00 0.00 0.00 1 1009.6
20260505113037 8 194 0.0 0.0 0.00 0.00 0.00 1 1009.4
20260505111532 8 194 0.0 0.0 0.00 0.00 0.00 1 1009.2
20260505101514 8 194 0.0 0.0 0.00 0.00 0.00 1 1008.7
20260505100016 8 194 0.0 0.0 0.00 0.00 0.00 1 1008.7
20260505094505 9 194 0.0 0.0 0.00 0.00 0.00 1 1008.7
20260505093102 9 194 0.0 0.0 0.00 0.00 0.00 1 1008.6
20260505091605 9 194 0.0 0.0 0.00 0.00 0.00 1 1008.6
20260505090058 9 194 0.0 0.0 0.00 0.00 0.00 1 1008.5
20260505084554 9 194 0.0 0.0 0.00 0.00 0.00 1 1008.5
20260505083055 9 194 0.0 0.0 0.00 0.00 0.00 1 1008.3
20260505081539 9 194 0.0 0.0 0.00 0.00 0.00 1 1008.2
20260505080043 9 194 0.0 0.0 0.00 0.00 0.00 1 1008.1
20260505074530 9 194 0.0 0.0 0.00 0.00 0.00 1 1008.0
20260505073033 10 194 0.0 0.0 0.00 0.00 0.00 1 1007.8
20260505071521 10 194 0.0 0.0 0.00 0.00 0.00 1 1007.8
20260505070017 10 194 0.0 0.0 0.00 0.00 0.00 1 1007.6
20260505064512 10 194 0.0 0.0 0.00 0.00 0.00 1 1007.5
20260505063007 10 194 0.0 0.0 0.00 0.00 0.00 1 1007.2
20260505061504 10 194 0.0 0.0 0.00 0.00 0.00 1 1007.0
20260505060059 10 194 0.0 0.0 0.00 0.00 0.00 1 1007.0
20260505054558 11 194 0.0 0.0 0.00 0.00 0.00 1 1006.7
20260505053049 11 194 0.0 0.0 0.00 0.00 0.00 1 1006.6
20260505051545 11 194 0.0 0.0 0.00 0.00 0.00 1 1006.5
20260505041528 12 193 0.0 0.0 0.00 0.00 0.00 21 1006.1
20260505040023 13 193 0.0 0.0 0.00 0.00 0.00 23 1006.0
20260505034523 13 116 0.0 0.0 0.00 0.00 0.00 34 1005.9
20260505033017 14 116 0.0 0.0 0.00 0.00 0.00 41 1005.8
20260505031512 15 116 0.0 0.0 0.00 0.00 0.00 46 1005.8
20260505030006 15 116 0.0 0.0 0.00 0.00 0.00 51 1005.8
20260505024502 15 116 0.0 0.0 0.00 0.00 0.00 52 1005.8
20260505023057 15 116 0.0 0.0 0.00 0.00 0.00 54 1005.6
20260505021555 16 50 0.0 0.0 0.00 0.00 0.00 57 1005.7
20260505020051 16 48 0.0 0.0 0.00 0.00 0.00 59 1005.7
20260505014601 17 49 0.0 0.0 0.00 0.00 0.00 60 1005.9
20260505013039 17 48 0.0 0.0 0.00 0.00 0.00 60 1005.9
20260505011541 18 49 0.0 0.0 0.00 0.00 0.00 59 1005.9
20260505010031 20 49 0.0 0.0 0.00 0.00 0.00 56 1005.8
20260505004526 21 59 0.0 0.0 0.00 0.00 0.00 55 1005.8
20260505003021 22 23 0.0 0.0 0.00 0.00 0.00 53 1005.8
20260505001517 23 68 0.0 0.0 0.00 0.00 0.00 51 1005.9
20260505000016 24 70 0.0 0.0 0.00 0.00 0.00 49 1005.9
20260504234514 24 79 0.0 0.0 0.00 0.00 0.00 50 1006.0
20260504233011 23 27 0.0 0.0 0.00 0.00 0.00 53 1005.9
20260504231506 25 26 0.0 0.0 0.00 0.00 0.00 50 1005.9
20260504230003 25 24 0.0 0.0 0.00 0.00 0.00 47 1006.1
20260504224559 25 82 0.0 0.0 0.00 0.00 0.00 46 1006.3
20260504223054 25 104 0.0 0.0 0.00 0.00 0.00 49 1006.5
20260504221549 24 356 0.0 0.0 0.00 0.00 0.00 47 1006.5
20260504220046 23 21 0.0 0.0 0.00 0.00 0.00 49 1006.5
20260504214550 23 29 0.0 0.0 0.00 0.00 0.00 52 1006.7
20260504213036 23 59 0.0 0.0 0.00 0.00 0.00 49 1006.8
20260504211534 24 94 0.0 0.0 0.00 0.00 0.00 46 1006.9
20260504210036 24 221 0.0 0.0 0.00 0.00 0.00 45 1006.9
20260504204531 25 221 0.0 0.0 0.00 0.00 0.00 44 1006.9
20260504203024 25 220 0.0 0.0 0.00 0.00 0.00 44 1006.9
20260504201513 24 196 0.0 0.0 0.00 0.00 0.00 49 1006.8
20260504200009 24 194 0.0 0.0 0.00 0.00 0.00 46 1006.9
20260504194506 23 194 0.0 0.0 0.00 0.00 0.00 45 1006.9
20260504193100 23 194 0.0 0.0 0.00 0.00 0.00 44 1007.0
20260504191600 25 193 0.0 0.0 0.00 0.00 0.00 40 1006.9